CW6427 Weather Reports


Display with metric or nautical units.
time (UTC)temp
F
wind
direction
speed
MPH
gust
MPH
rain 1hr
in
rain 24hr
in
rain mn
in
humidity
%
barometer
mb
20260903022837 65 173 8.0 19.0 0.15 1.60 1.60 99 1016.5
20260903021837 65 183 7.0 21.0 0.19 1.59 1.59 98 1016.7
20260903020836 65 195 9.0 15.0 0.18 1.56 1.56 98 1017.5
20260903015837 65 175 6.0 16.0 0.18 1.54 1.54 98 1016.6
20260903014836 66 159 8.0 18.0 0.19 1.54 1.54 97 1017.6
20260903013836 69 205 12.0 14.0 0.17 1.52 1.52 98 1018.2
20260903012836 69 179 6.0 12.0 0.10 1.45 1.45 99 1018.0
20260903011836 70 148 8.0 13.0 0.05 1.40 1.40 98 1017.9
20260903010906 70 146 9.0 10.0 0.03 1.38 1.38 98 1018.0
20260903005835 70 157 6.0 19.0 0.01 1.36 1.36 98 1018.0
20260903004836 70 180 14.0 18.0 0.00 1.35 1.35 98 1017.9
20260903003835 70 178 8.0 14.0 0.00 1.35 1.35 98 1017.5
20260903002835 70 178 5.0 12.0 0.00 1.35 1.35 97 1016.8
20260902235835 70 167 8.0 15.0 0.00 1.35 1.35 98 1017.1
20260902233904 70 190 11.0 19.0 0.00 1.35 1.35 98 1016.9
20260902232904 70 152 10.0 18.0 0.00 1.35 1.35 98 1017.1
20260902231904 70 167 15.0 20.0 0.00 1.35 1.35 98 1017.3
20260902230834 70 165 12.0 20.0 0.00 1.35 1.35 98 1017.1
20260902225904 70 163 10.0 18.0 0.00 1.35 1.35 97 1016.8
20260902224833 71 153 9.0 16.0 0.00 1.35 1.35 97 1016.5
20260902223903 71 173 10.0 15.0 0.00 1.35 1.35 97 1016.8
20260902222903 71 180 7.0 20.0 0.00 1.35 1.35 96 1016.6
20260902221833 72 188 10.0 16.0 0.00 1.35 1.35 96 1016.9
20260902220903 72 170 10.0 14.0 0.00 1.35 1.35 95 1017.3
20260902215903 72 161 8.0 15.0 0.00 1.35 1.35 95 1017.7
20260902214832 73 163 8.0 13.0 0.00 1.35 1.35 94 1017.8
20260902213902 73 149 4.0 11.0 0.00 1.35 1.35 94 1018.1
20260902212902 73 148 8.0 11.0 0.00 1.35 1.35 94 1018.4
20260902211902 73 150 8.0 14.0 0.00 1.35 1.35 94 1018.3
20260902210902 73 194 8.0 12.0 0.00 1.35 1.35 93 1018.3
20260902205902 74 160 6.0 13.0 0.00 1.35 1.35 93 1018.4
20260902204831 74 138 11.0 13.0 0.00 1.35 1.35 93 1018.2
20260902203901 74 175 9.0 15.0 0.00 1.35 1.35 93 1018.4
20260902202901 74 154 9.0 16.0 0.00 1.35 1.35 93 1018.4
20260902201901 73 161 9.0 17.0 0.00 1.35 1.35 93 1018.2
20260902200901 73 150 11.0 16.0 0.00 1.35 1.35 94 1017.9
20260902195901 73 142 14.0 18.0 0.00 1.35 1.35 94 1018.0
20260902194901 73 158 10.0 15.0 0.00 1.35 1.35 93 1018.1
20260902193900 74 162 8.0 14.0 0.00 1.35 1.35 91 1018.1
20260902192901 75 144 10.0 16.0 0.00 1.35 1.35 91 1018.2
20260902191900 75 137 16.0 18.0 0.00 1.35 1.35 90 1018.3
20260902190900 75 186 9.0 22.0 0.00 1.35 1.35 89 1018.4
20260902185900 76 190 8.0 18.0 0.00 1.35 1.35 89 1018.8
20260902183859 75 145 10.0 20.0 0.00 1.35 1.35 89 1018.9
20260902182859 75 131 16.0 18.0 0.00 1.35 1.35 88 1018.8
20260902181859 76 139 13.0 21.0 0.00 1.35 1.35 88 1018.8
20260902180859 76 155 14.0 22.0 0.00 1.35 1.35 87 1018.9
20260902175859 76 141 13.0 21.0 0.00 1.35 1.35 86 1018.9
20260902174859 75 189 13.0 21.0 0.00 1.35 1.35 88 1019.0
20260902173858 75 167 17.0 19.0 0.00 1.35 1.35 88 1019.0
20260902172858 74 153 8.0 15.0 0.00 1.35 1.35 87 1018.9
20260902171858 73 158 8.0 24.0 0.00 1.35 1.35 87 1019.0
20260902165858 73 154 14.0 21.0 0.00 1.35 1.35 87 1019.0
20260902164858 72 190 10.0 18.0 0.00 1.35 1.35 90 1019.4
20260902163857 71 159 7.0 12.0 0.01 1.35 1.35 96 1019.3
20260902162857 70 169 9.0 12.0 0.03 1.35 1.35 98 1019.3
20260902161857 68 142 8.0 10.0 0.04 1.35 1.35 100 1019.5
20260902160857 68 105 3.0 10.0 0.07 1.35 1.35 100 1019.8
20260902155856 66 136 1.0 5.0 0.12 1.35 1.35 100 1020.1
20260902154856 65 93 0.0 7.0 0.35 1.35 1.35 100 1020.4
20260902153856 64 80 3.0 4.0 0.51 1.34 1.34 100 1021.1
20260902152856 65 52 1.0 9.0 0.56 1.32 1.32 100 1020.9
20260902151855 65 5 8.0 13.0 0.70 1.31 1.31 99 1021.3
20260902150855 67 19 4.0 5.0 0.92 1.28 1.28 100 1021.3
20260902144855 65 238 3.0 6.0 0.97 1.00 1.00 99 1019.5
20260902142855 66 59 1.0 11.0 0.75 0.76 0.76 99 1019.7
20260902141855 67 193 2.0 15.0 0.60 0.61 0.61 100 1020.8
20260902140855 67 218 5.0 18.0 0.35 0.36 0.36 99 1019.4
20260902135854 69 174 8.0 19.0 0.16 0.17 0.17 99 1019.9
20260902133854 70 177 3.0 8.0 0.00 0.01 0.01 100 1019.6
20260902132854 70 165 6.0 8.0 0.00 0.01 0.01 100 1019.8
20260902131854 70 171 5.0 9.0 0.00 0.01 0.01 100 1019.7
20260902125853 70 162 2.0 11.0 0.00 0.01 0.01 100 1019.9
20260902124853 70 126 8.0 9.0 0.00 0.01 0.01 100 1019.7
20260902123853 70 149 4.0 9.0 0.00 0.01 0.01 100 1019.6
20260902122853 70 148 4.0 9.0 0.00 0.01 0.01 100 1019.6
20260902121853 70 203 9.0 12.0 0.00 0.01 0.01 100 1019.5
20260902120852 69 164 6.0 12.0 0.00 0.01 0.01 100 1019.1
20260902115852 69 145 8.0 10.0 0.00 0.01 0.01 100 1019.1
20260902114852 69 175 3.0 10.0 0.00 0.01 0.01 100 1019.1
20260902113852 69 163 7.0 10.0 0.00 0.01 0.01 100 1019.0
20260902112852 69 158 5.0 11.0 0.00 0.01 0.01 100 1019.0
20260902111852 68 164 4.0 7.0 0.00 0.02 0.01 100 1019.0
20260902110851 68 172 5.0 9.0 0.00 0.02 0.01 100 1018.9
20260902105851 68 152 5.0 14.0 0.00 0.02 0.01 100 1019.0
20260902103851 68 174 10.0 10.0 0.00 0.02 0.01 100 1019.1
20260902101850 68 155 7.0 8.0 0.01 0.02 0.01 100 1019.3
20260902100850 68 164 4.0 5.0 0.01 0.02 0.01 100 1019.5
20260902095850 68 147 2.0 6.0 0.01 0.02 0.01 100 1019.6
20260902094850 68 157 5.0 7.0 0.01 0.02 0.01 100 1019.5
20260902093849 67 183 2.0 4.0 0.01 0.08 0.01 100 1019.4
20260902092850 67 190 3.0 3.0 0.01 0.11 0.01 100 1019.3
20260902090849 67 190 1.0 3.0 0.00 0.10 0.00 100 1019.5
20260902085849 67 190 1.0 3.0 0.00 0.10 0.00 100 1019.6
20260902084849 67 190 2.0 3.0 0.00 0.10 0.00 100 1019.7
20260902083849 67 189 3.0 5.0 0.00 0.10 0.00 100 1019.7
20260902082849 67 206 5.0 6.0 0.00 0.10 0.00 100 1019.6
20260902081848 66 219 3.0 5.0 0.00 0.10 0.00 100 1019.4
20260902074848 66 204 3.0 6.0 0.00 0.10 0.00 100 1019.5
20260902073848 66 204 3.0 5.0 0.00 0.10 0.00 100 1019.4
20260902072848 66 208 4.0 5.0 0.00 0.11 0.00 100 1019.3
20260902070847 66 213 3.0 4.0 0.00 0.11 0.00 100 1019.2
20260902064846 65 209 3.0 4.0 0.00 0.12 0.00 100 1019.2
20260902063846 65 192 3.0 4.0 0.00 0.12 0.00 100 1019.3
20260902062846 65 190 3.0 4.0 0.00 0.12 0.00 100 1019.4
20260902061846 66 192 2.0 4.0 0.00 0.12 0.00 100 1019.6
20260902060846 66 192 3.0 5.0 0.00 0.12 0.00 100 1019.6
20260902055846 66 188 3.0 4.0 0.00 0.12 0.00 100 1019.6
20260902054845 66 201 3.0 4.0 0.00 0.12 0.00 100 1019.5
20260902053845 66 194 3.0 4.0 0.00 0.12 0.00 100 1019.6
20260902052845 65 203 3.0 4.0 0.00 0.12 0.00 100 1019.4
20260902051845 66 202 2.0 3.0 0.00 0.12 0.00 100 1019.4
20260902050845 66 199 2.0 3.0 0.00 0.12 0.00 100 1019.3
20260902045845 66 200 2.0 3.0 0.00 0.12 0.00 100 1019.1
20260902044844 66 200 2.0 3.0 0.00 0.12 0.00 100 1019.2
20260902043844 67 208 3.0 4.0 0.00 0.13 0.00 100 1019.2
20260902042844 67 199 1.0 3.0 0.00 0.13 0.00 100 1019.1
20260902041844 67 199 2.0 3.0 0.00 0.13 0.00 100 1019.1
20260902040844 67 198 1.0 4.0 0.00 0.13 0.00 100 1019.1
20260902035844 67 205 3.0 4.0 0.00 0.13 0.13 100 1019.0
20260902034844 67 205 2.0 3.0 0.00 0.13 0.13 100 1018.9
20260902031843 68 205 2.0 4.0 0.00 0.14 0.13 100 1018.9
20260902030843 68 205 3.0 3.0 0.00 0.14 0.13 100 1018.9
20260902025843 68 205 2.0 3.0 0.00 0.14 0.13 100 1018.8
20260902024843 68 205 1.0 3.0 0.00 0.14 0.13 100 1018.9